| time (UTC) | temp C | wind direction | speed KPH | gust KPH | rain 1hr cm | rain 24hr cm | rain mn cm | humidity % | barometer mb |
| 20260507070013 | 11 | 293 | 0.0 | 4.8 | 0.00 | 2.16 | 1.02 | 74 | 1011.0 |
| 20260507064509 | 11 | 3 | 0.0 | 4.8 | 0.00 | 2.16 | 1.02 | 75 | 1010.9 |
| 20260507063008 | 11 | 295 | 1.6 | 8.0 | 0.00 | 2.16 | 1.02 | 79 | 1010.9 |
| 20260507061504 | -17 | 0.0 | 0.0 | 0.00 | 2.16 | 1.02 | 1010.9 | ||
| 20260507060104 | 11 | 338 | 1.6 | 6.4 | 0.00 | 2.16 | 1.02 | 83 | 1010.8 |
| 20260507054500 | 11 | 309 | 1.6 | 8.0 | 0.00 | 2.16 | 1.02 | 84 | 1010.8 |
| 20260507053100 | 11 | 302 | 0.0 | 4.8 | 0.99 | 2.16 | 1.02 | 85 | 1010.4 |
| 20260507051600 | 11 | 321 | 1.6 | 8.0 | 1.02 | 2.16 | 1.02 | 85 | 1010.6 |
| 20260507050058 | 11 | 312 | 3.2 | 8.0 | 1.02 | 2.16 | 1.02 | 86 | 1010.5 |
| 20260507044610 | 11 | 297 | 3.2 | 14.5 | 1.02 | 2.16 | 1.02 | 86 | 1010.7 |
| 20260507043104 | 12 | 353 | 1.6 | 6.4 | 1.02 | 2.16 | 1.02 | 85 | 1010.6 |
| 20260507041556 | 12 | 314 | 9.7 | 19.3 | 0.00 | 1.14 | 0.00 | 85 | 1010.4 |
| 20260507040049 | 12 | 297 | 9.7 | 20.9 | 0.00 | 1.14 | 1.14 | 82 | 1010.5 |
| 20260507034546 | 12 | 311 | 4.8 | 11.3 | 0.00 | 1.14 | 1.14 | 82 | 1010.2 |
| 20260507033045 | 12 | 344 | 1.6 | 8.0 | 0.00 | 1.14 | 1.14 | 82 | 1010.5 |
| 20260507031546 | -17 | 0.0 | 0.0 | 0.00 | 1.14 | 1.14 | 1009.8 | ||
| 20260507030037 | 13 | 4 | 0.0 | 9.7 | 0.00 | 1.14 | 1.14 | 80 | 1010.2 |
| 20260507024535 | 13 | 160 | 3.2 | 12.9 | 0.00 | 1.14 | 1.14 | 78 | 1010.1 |
| 20260507023035 | 13 | 316 | 4.8 | 16.1 | 0.00 | 1.14 | 1.14 | 78 | 1010.1 |
| 20260507021530 | 14 | 342 | 6.4 | 16.1 | 0.00 | 1.14 | 1.14 | 79 | 1009.9 |
| 20260507020044 | 14 | 312 | 9.7 | 20.9 | 0.00 | 1.14 | 1.14 | 78 | 1009.7 |
| 20260507014531 | 15 | 311 | 6.4 | 16.1 | 0.00 | 1.14 | 1.14 | 78 | 1009.9 |
| 20260507013028 | 15 | 302 | 4.8 | 12.9 | 0.00 | 1.14 | 1.14 | 77 | 1010.0 |
| 20260507011539 | 15 | 281 | 4.8 | 17.7 | 0.00 | 1.14 | 1.14 | 1009.9 | |
| 20260507010024 | -17 | 0.0 | 0.0 | 0.00 | 1.14 | 1.14 | 1009.4 | ||
| 20260507004518 | 15 | 276 | 1.6 | 16.1 | 0.00 | 1.14 | 1.14 | 79 | 1009.2 |
| 20260507003018 | 16 | 318 | 6.4 | 12.9 | 0.00 | 1.14 | 1.14 | 78 | 1009.3 |
| 20260507001543 | 16 | 285 | 8.0 | 14.5 | 0.00 | 1.14 | 1.14 | 78 | 1008.8 |
| 20260507000015 | 16 | 350 | 8.0 | 17.7 | 0.00 | 1.14 | 1.14 | 79 | 1008.3 |
| 20260506234515 | 16 | 287 | 3.2 | 9.7 | 0.00 | 1.14 | 1.14 | 84 | 1007.9 |
| 20260506233017 | 16 | 310 | 8.0 | 17.7 | 0.00 | 1.14 | 1.14 | 84 | 1007.5 |
| 20260506231517 | 17 | 293 | 8.0 | 17.7 | 0.00 | 1.14 | 1.14 | 86 | 1007.6 |
| 20260506230014 | 17 | 291 | 6.4 | 17.7 | 0.00 | 1.14 | 1.14 | 88 | 1007.5 |
| 20260506224509 | 18 | 310 | 3.2 | 8.0 | 0.00 | 1.14 | 1.14 | 88 | 1007.2 |
| 20260506223010 | 18 | 217 | 0.0 | 8.0 | 0.00 | 1.14 | 1.14 | 88 | 1007.1 |
| 20260506221510 | 18 | 315 | 0.0 | 4.8 | 0.00 | 1.14 | 1.14 | 87 | 1006.9 |
| 20260506220009 | 18 | 324 | 1.6 | 8.0 | 0.00 | 1.14 | 1.14 | 86 | 1006.9 |
| 20260506214509 | 18 | 213 | 1.6 | 9.7 | 0.00 | 1.14 | 1.14 | 88 | 1006.7 |
| 20260506213008 | 18 | 196 | 4.8 | 11.3 | 0.00 | 1.14 | 1.14 | 87 | 1006.4 |
| 20260506211508 | 18 | 230 | 4.8 | 11.3 | 0.00 | 1.14 | 1.14 | 87 | 1006.3 |
| 20260506210009 | 19 | 209 | 3.2 | 9.7 | 0.00 | 1.14 | 1.14 | 86 | 1006.3 |
| 20260506204508 | 19 | 217 | 0.0 | 8.0 | 0.00 | 1.14 | 1.14 | 83 | 1006.3 |
| 20260506203009 | -17 | 0.0 | 0.0 | 0.00 | 1.14 | 1.14 | 1006.2 | ||
| 20260506201601 | -17 | 176 | 9.7 | 0.0 | 0.00 | 1.14 | 1.14 | 1006.2 | |
| 20260506201501 | -17 | 176 | 9.7 | 0.0 | 0.00 | 1.14 | 1.14 | 1006.2 | |
| 20260506194600 | 18 | 56 | 1.6 | 8.0 | 0.00 | 1.14 | 1.14 | 86 | 1006.3 |
| 20260506193101 | -17 | 0.0 | 0.0 | 0.00 | 1.14 | 1.14 | 1006.4 | ||
| 20260506191548 | -17 | 308 | 6.4 | 0.0 | 0.00 | 1.14 | 1.14 | 1006.4 | |
| 20260506190048 | 17 | 261 | 1.6 | 8.0 | 0.00 | 1.14 | 1.14 | 89 | 1006.5 |
| 20260506184547 | 17 | 43 | 0.0 | 6.4 | 0.00 | 1.14 | 1.14 | 90 | 1006.6 |
| 20260506183045 | 17 | 174 | 0.0 | 9.7 | 0.00 | 1.14 | 1.14 | 90 | 1006.8 |
| 20260506181549 | 17 | 330 | 0.0 | 6.4 | 0.00 | 1.14 | 1.14 | 91 | 1006.9 |
| 20260506180040 | 16 | 248 | 1.6 | 12.9 | 0.00 | 1.14 | 1.14 | 92 | 1006.9 |
| 20260506174541 | 16 | 146 | 1.6 | 12.9 | 0.00 | 1.14 | 1.14 | 92 | 1007.0 |
| 20260506173045 | 16 | 338 | 1.6 | 12.9 | 0.00 | 1.14 | 1.14 | 91 | 1007.0 |
| 20260506171541 | 16 | 259 | 4.8 | 12.9 | 0.00 | 1.14 | 1.14 | 91 | 1006.9 |
| 20260506170046 | 16 | 165 | 3.2 | 11.3 | 0.00 | 1.14 | 1.14 | 92 | 1007.0 |
| 20260506164554 | 16 | 159 | 4.8 | 16.1 | 0.00 | 1.14 | 1.14 | 92 | 1006.9 |
| 20260506163042 | 16 | 183 | 1.6 | 9.7 | 0.00 | 1.14 | 1.14 | 94 | 1007.0 |
| 20260506161538 | 15 | 124 | 1.6 | 9.7 | 0.03 | 1.14 | 1.14 | 94 | 1007.0 |
| 20260506160037 | 15 | 233 | 0.0 | 9.7 | 0.13 | 1.14 | 1.14 | 95 | 1007.1 |
| 20260506154539 | 15 | 169 | 1.6 | 6.4 | 0.18 | 1.14 | 1.14 | 97 | 1007.1 |
| 20260506153036 | 15 | 196 | 1.6 | 6.4 | 0.43 | 1.14 | 1.14 | 97 | 1007.1 |
| 20260506151538 | 15 | 139 | 1.6 | 8.0 | 0.58 | 1.14 | 1.14 | 97 | 1006.9 |
| 20260506150042 | 15 | 161 | 3.2 | 9.7 | 0.48 | 1.02 | 1.02 | 96 | 1007.3 |
| 20260506144533 | 15 | 146 | 0.0 | 11.3 | 0.53 | 0.99 | 0.99 | 93 | 1007.8 |
| 20260506143037 | 15 | 195 | 1.6 | 8.0 | 0.41 | 0.71 | 0.71 | 93 | 1008.1 |
| 20260506141540 | 15 | 163 | 0.0 | 4.8 | 0.36 | 0.58 | 0.58 | 93 | 1007.9 |
| 20260506140033 | 15 | 135 | 0.0 | 8.0 | 0.33 | 0.53 | 0.53 | 93 | 1007.5 |
| 20260506134532 | 15 | 154 | 0.0 | 12.9 | 0.30 | 0.48 | 0.48 | 92 | 1007.5 |
| 20260506133030 | 15 | 165 | 3.2 | 6.4 | 0.18 | 0.33 | 0.33 | 90 | 1007.7 |
| 20260506131529 | 16 | 156 | 0.0 | 6.4 | 0.15 | 0.25 | 0.25 | 90 | 1007.7 |
| 20260506130027 | 16 | 180 | 1.6 | 11.3 | 0.13 | 0.20 | 0.20 | 88 | 1007.5 |
| 20260506124527 | 16 | 141 | 0.0 | 11.3 | 0.18 | 0.18 | 0.18 | 87 | 1007.7 |
| 20260506123026 | 16 | 168 | 3.2 | 11.3 | 0.15 | 0.15 | 0.15 | 86 | 1007.7 |
| 20260506121524 | 16 | 208 | 0.0 | 11.3 | 0.13 | 0.13 | 0.13 | 84 | 1008.0 |
| 20260506120043 | 16 | 34 | 0.0 | 9.7 | 0.08 | 0.08 | 0.08 | 82 | 1008.2 |
| 20260506114519 | 17 | 323 | 1.6 | 9.7 | 0.05 | 0.05 | 0.05 | 79 | 1007.8 |
| 20260506113012 | -17 | 0.0 | 0.0 | 0.00 | 0.00 | 0.00 | 1007.3 | ||
| 20260506111507 | -17 | 0.0 | 0.0 | 0.00 | 0.00 | 0.00 | 1007.3 | ||
| 20260506110003 | 18 | 347 | 3.2 | 16.1 | 0.00 | 0.00 | 0.00 | 66 | 1007.1 |
| 20260506104502 | 18 | 182 | 4.8 | 16.1 | 0.00 | 0.00 | 0.00 | 66 | 1007.0 |
| 20260506103100 | 19 | 191 | 1.6 | 17.7 | 0.00 | 0.00 | 0.00 | 65 | 1006.8 |
| 20260506101559 | 19 | 214 | 3.2 | 12.9 | 0.00 | 0.00 | 0.00 | 65 | 1006.7 |
| 20260506100111 | 19 | 224 | 0.0 | 11.3 | 0.00 | 0.00 | 0.00 | 64 | 1006.5 |
| 20260506094601 | 19 | 183 | 3.2 | 12.9 | 0.00 | 0.00 | 0.00 | 64 | 1006.4 |
| 20260506093051 | 19 | 332 | 1.6 | 9.7 | 0.00 | 0.00 | 0.00 | 62 | 1006.6 |
| 20260506091549 | 20 | 224 | 0.0 | 9.7 | 0.00 | 0.00 | 0.00 | 61 | 1006.6 |
| 20260506090047 | 20 | 281 | 3.2 | 19.3 | 0.00 | 0.00 | 0.00 | 60 | 1007.0 |
| 20260506084616 | 20 | 146 | 0.0 | 12.9 | 0.00 | 0.00 | 0.00 | 59 | 1007.0 |
| 20260506083048 | 20 | 144 | 1.6 | 11.3 | 0.00 | 0.00 | 0.00 | 59 | 1006.9 |
| 20260506081554 | 20 | 165 | 3.2 | 16.1 | 0.00 | 0.00 | 0.00 | 58 | 1006.9 |
| 20260506073040 | 20 | 133 | 4.8 | 14.5 | 0.00 | 0.00 | 0.00 | 56 | 1006.9 |
| 20260506071538 | 20 | 186 | 0.0 | 17.7 | 0.00 | 0.00 | 0.00 | 56 | 1007.1 |